Price, UT

9:22 PM MDT on May 25, 2018 (GMT -0600)
Carbon County

Weather History for KPUC - September, 2013

Change the Weather History Date:

Thursday, September 26, 2013

  Actual Average Record
Temperature  
Mean Temperature 57 °F -  
Max Temperature 70 °F 70 °F 89 °F (2003)
Min Temperature 46 °F 42 °F 26 °F (1986)
Degree Days  
Heating Degree Days 8    
Growing Degree Days 7 (Base 50)    
Moisture  
Dew Point 31 °F    
Average Humidity 41    
Maximum Humidity 61    
Minimum Humidity 16    
Precipitation  
Precipitation 0.00 in - - ()
Sea Level Pressure  
Sea Level Pressure 29.59 in    
Wind  
Wind Speed 8 mph (WNW)    
Max Wind Speed 22 mph    
Max Gust Speed 31 mph    
Visibility 10 miles    
Events Thunderstorm    
Averages and records for this station are not official NWS values.
T = Trace of Precipitation, MM = Missing Value Source: NWS Daily Summary

Daily Weather History Graph

Daily Weather History Graph

Search for Another Location

Airport or City:

Astronomy

Sep. 26, 2013 Rise Set
Actual Time 7:14 AM MDT 7:13 PM MDT
Civil Twilight 6:47 AM MDT 7:39 PM MDT
Nautical Twilight 6:16 AM MDT 8:11 PM MDT
Astronomical Twilight 5:44 AM MDT 8:42 PM MDT
Moon No Moon Rise 2:08 PM MDT
Length of Visible Light 12h 51m
Length of Day
11h 58m
Waning Gibbous, 54% of the Moon is Illuminated
Sep 26
Waning Gibbous
Sep 26
Last Quarter
Oct 4
New
Oct 11
First Quarter
Oct 18
Full

Hourly Weather History & Observations

Time (MDT) Temp. Dew Point Humidity Pressure Visibility Wind Dir Wind Speed Gust Speed Precip Events Conditions
12:53 AM 50.0 °F 30.0 °F 46% 29.53 in 10.0 mi North 13.8 mph - N/A   Overcast
1:53 AM 48.9 °F 30.9 °F 50% 29.57 in 10.0 mi North 12.7 mph - N/A   Overcast
2:53 AM 46.9 °F 30.9 °F 54% 29.56 in 10.0 mi Calm Calm - N/A   Mostly Cloudy
3:53 AM 48.9 °F 32.0 °F 52% 29.57 in 10.0 mi Calm Calm - N/A   Overcast
4:53 AM 46.9 °F 33.1 °F 59% 29.56 in 10.0 mi Calm Calm - N/A   Overcast
5:53 AM 46.0 °F 33.1 °F 61% 29.57 in 10.0 mi Calm Calm - N/A   Overcast
6:53 AM 46.9 °F 34.0 °F 61% 29.59 in 10.0 mi SSW 3.5 mph - N/A   Overcast
7:53 AM 48.0 °F 35.1 °F 61% 29.62 in 10.0 mi Calm Calm - N/A   Mostly Cloudy
8:53 AM 51.1 °F 33.1 °F 50% 29.62 in 10.0 mi Calm Calm - N/A   Mostly Cloudy
9:53 AM 55.9 °F 33.1 °F 42% 29.61 in 10.0 mi Calm Calm - N/A   Scattered Clouds
10:53 AM 60.1 °F 32.0 °F 35% 29.61 in 10.0 mi SE 5.8 mph - N/A   Clear
11:53 AM 60.1 °F 30.9 °F 33% 29.60 in 10.0 mi SE 9.2 mph - N/A   Overcast
12:53 PM 63.0 °F 32.0 °F 31% 29.55 in 10.0 mi SSE 9.2 mph - N/A   Overcast
1:53 PM 66.0 °F 30.9 °F 27% 29.51 in 10.0 mi SE 5.8 mph 18.4 mph N/A   Overcast
2:53 PM 68.0 °F 19.9 °F 16% 29.47 in 4.0 mi South 21.9 mph 31.1 mph N/A   Haze
3:53 PM 66.9 °F 26.1 °F 21% 29.47 in 10.0 mi SSE 18.4 mph 29.9 mph N/A   Overcast
4:53 PM 64.9 °F 30.9 °F 28% 29.48 in 10.0 mi SE 16.1 mph 25.3 mph N/A   Overcast
5:14 PM 64.4 °F 30.2 °F 28% 29.62 in 10.0 mi WSW 8.1 mph 17.3 mph N/A   Overcast
5:49 PM 60.8 °F 30.2 °F 31% 29.64 in 10.0 mi NW 11.5 mph 21.9 mph N/A Thunderstorm Overcast
5:53 PM 60.1 °F 30.0 °F 32% 29.54 in 10.0 mi North 16.1 mph 27.6 mph N/A Thunderstorm Overcast
6:24 PM 59.0 °F 30.2 °F 34% 29.65 in 10.0 mi West 9.2 mph 19.6 mph N/A   Overcast
6:53 PM 57.0 °F 30.9 °F 37% 29.57 in 10.0 mi NNW 15.0 mph 21.9 mph N/A   Overcast
7:53 PM 54.0 °F 30.0 °F 40% 29.64 in 10.0 mi NNW 13.8 mph 19.6 mph N/A   Scattered Clouds
8:53 PM 52.0 °F 28.9 °F 41% 29.66 in 10.0 mi NW 12.7 mph - N/A   Mostly Cloudy
9:53 PM 51.1 °F 28.9 °F 43% 29.67 in 10.0 mi NNW 5.8 mph - N/A   Overcast
10:53 PM 48.9 °F 28.9 °F 46% 29.66 in 10.0 mi NW 9.2 mph - N/A   Overcast
11:53 PM 48.9 °F 28.9 °F 46% 29.67 in 10.0 mi NNW 12.7 mph - N/A   Mostly Cloudy